Location: Asheville, NC
(35.6000°N, 82.5500°W)
Time: 23:01:51

STARS - Pass Details

Date: 17 March 2018
Orbit: 625 x 641 km, 98.3° (Epoch: 20 March)

Event Time Altitude Azimuth Distance (km) Brightness Sun altitude
Rises 06:26:45 0° 147° (SSE) 2,929 ? -15.3°
Reaches altitude 10° 06:29:04 10° 139° (SE) 2,023 ? -14.8°
Maximum altitude 06:33:07 37° 72° (ENE) 997 ? -14.0°
Drops below altitude 10° 06:37:11 10° 5° (N) 2,031 ? -13.2°
Sets 06:39:30 0° 357° (N) 2,942 ? -12.7°
